EW8108 Weather Reports


time (UTC)temp
C
wind
direction
speed
KPH
gust
KPH
rain 1hr
cm
rain 24hr
cm
rain mn
cm
humidity
%
barometer
mb
20200218214856 10 342 0.0 6.4 0.00 0.03 0.03 89 979.4
20200218213846 11 337 0.0 0.0 0.00 0.03 0.03 90 979.3
20200218212853 11 5 0.0 8.0 0.00 0.03 0.03 89 979.1
20200218211819 11 5 0.0 1.6 0.00 0.03 0.03 90 979.0
20200218210840 12 0 0.0 9.7 0.00 0.03 0.03 89 978.8
20200218205853 12 355 0.0 9.7 0.00 0.03 0.03 89 978.8
20200218204846 13 355 0.0 9.7 0.00 0.03 0.03 89 978.6
20200218203812 13 322 1.6 9.7 0.00 0.00 0.00 89 978.5
20200218202736 14 12 1.6 8.0 0.00 0.00 0.00 90 978.3
20200218201718 14 355 1.6 8.0 0.00 0.00 0.00 90 978.1
20200218200708 15 351 1.6 8.0 0.00 0.00 0.00 90 977.8
20200218195636 15 349 0.0 8.0 0.00 0.00 0.00 90 977.8
20200218194614 15 346 1.6 8.0 0.00 0.00 0.00 90 977.7
20200218193632 15 12 0.0 6.4 0.00 0.00 0.00 90 977.8
20200218192648 15 344 0.0 9.7 0.00 0.00 0.00 90 977.8
20200218191654 15 327 0.0 9.7 0.00 0.00 0.00 90 977.9
20200218190714 15 355 0.0 8.0 0.00 0.00 0.00 90 978.0
20200218185726 15 355 1.6 8.0 0.00 0.00 0.00 89 977.9
20200218184721 15 355 0.0 8.0 0.00 0.00 0.00 88 977.9
20200218183736 16 355 1.6 8.0 0.00 0.00 0.00 88 977.9
20200218182703 16 350 0.0 4.8 0.00 0.00 0.00 87 978.2
20200218181647 16 350 1.6 8.0 0.00 0.00 0.00 86 978.3
20200218180631 17 348 1.6 8.0 0.00 0.00 0.00 85 978.2
20200218175654 18 350 1.6 8.0 0.00 0.00 0.00 84 978.1
20200218174700 20 224 0.0 0.0 0.00 0.00 0.00 90 978.0
20200218173719 20 224 0.0 0.0 0.00 0.00 0.00 90 977.8
20200218172707 20 224 0.0 0.0 0.00 0.00 0.00 90 977.8
20200218171709 20 224 0.0 0.0 0.00 0.00 0.00 90 977.7
20200218170640 20 224 0.0 0.0 0.00 0.00 0.00 90 977.5
20200218165654 20 224 0.0 0.0 0.00 0.00 0.00 91 977.5
20200218164625 20 224 0.0 0.0 0.00 0.00 0.00 91 977.6
20200218163637 20 224 0.0 0.0 0.00 0.00 0.00 91 977.4
20200218162639 20 224 0.0 0.0 0.00 0.00 0.00 91 977.6
20200218161628 20 224 0.0 0.0 0.00 0.00 0.00 91 977.6
20200218160637 20 224 0.0 0.0 0.00 0.00 0.00 91 977.4
20200218154447 19 224 0.0 0.0 0.00 0.00 0.00 91 977.3
20200218153423 19 224 0.0 0.0 0.00 0.00 0.00 91 977.0
20200218152407 19 224 0.0 0.0 0.00 0.00 0.00 91 976.6
20200218151418 19 224 0.0 0.0 0.00 0.00 0.00 91 976.6
20200218150439 19 224 0.0 0.0 0.00 0.00 0.00 91 976.4
20200218144332 18 224 0.0 0.0 0.00 0.00 0.00 91 976.0
20200218143333 18 224 0.0 0.0 0.00 0.00 0.00 91 975.9
20200218142354 18 224 0.0 0.0 0.00 0.00 0.00 91 975.7
20200218141327 18 224 0.0 0.0 0.00 0.00 0.00 91 975.5
20200218140322 18 224 0.0 0.0 0.00 0.00 0.00 91 975.4
20200218135303 18 224 0.0 0.0 0.00 0.00 0.00 91 975.4
20200218134316 18 224 0.0 0.0 0.00 0.00 0.00 91 975.4
20200218133314 18 224 0.0 0.0 0.00 0.00 0.00 90 975.1
20200218132314 18 224 0.0 0.0 0.00 0.00 0.00 90 974.8
20200218131312 18 224 0.0 0.0 0.00 0.00 0.00 90 974.6
20200218130327 18 224 0.0 0.0 0.00 0.00 0.00 90 974.6
20200218125337 18 224 0.0 0.0 0.00 0.00 0.00 90 974.5
20200218124356 18 224 0.0 0.0 0.00 0.00 0.00 90 974.3
20200218123353 18 224 0.0 0.0 0.00 0.00 0.00 90 974.1
20200218122406 18 224 0.0 0.0 0.00 0.00 0.00 90 973.9
20200218121407 18 224 0.0 0.0 0.00 0.00 0.00 90 973.9
20200218120359 18 224 0.0 0.0 0.00 0.00 0.00 90 974.0
20200218115404 18 224 0.0 0.0 0.00 0.00 0.00 90 973.8
20200218114408 18 224 0.0 0.0 0.00 0.00 0.00 90 973.7
20200218113404 18 224 0.0 0.0 0.00 0.00 0.00 90 973.7
20200218112341 18 224 0.0 1.6 0.00 0.00 0.00 90 973.6
20200218111329 18 224 0.0 0.0 0.00 0.00 0.00 90 973.4
20200218110339 18 232 0.0 0.0 0.00 0.00 0.00 90 973.2
20200218105324 18 208 0.0 0.0 0.00 0.00 0.00 90 973.2
20200218104340 18 207 0.0 0.0 0.00 0.00 0.00 90 973.1
20200218103305 18 209 0.0 0.0 0.00 0.00 0.00 90 972.8
20200218102245 18 216 0.0 6.4 0.00 0.00 0.00 90 972.5
20200218101250 18 214 0.0 0.0 0.00 0.00 0.00 90 972.4
20200218100303 18 215 0.0 0.0 0.00 0.00 0.00 90 972.3
20200218095309 18 213 0.0 0.0 0.00 0.00 0.00 90 972.3
20200218094236 18 208 0.0 0.0 0.00 0.03 0.00 90 972.1
20200218093225 18 206 0.0 0.0 0.00 0.03 0.00 90 972.0
20200218092239 18 207 0.0 6.4 0.00 0.03 0.00 90 972.2
20200218091304 18 200 0.0 4.8 0.00 0.03 0.00 90 972.1
20200218090322 18 200 0.0 6.4 0.00 0.03 0.00 90 972.1
20200218085333 18 217 0.0 8.0 0.00 0.03 0.00 90 972.0
20200218084341 18 228 0.0 4.8 0.00 0.03 0.00 90 971.9
20200218083352 18 216 0.0 6.4 0.00 0.03 0.00 90 972.2
20200218082350 18 208 0.0 4.8 0.00 0.03 0.00 90 971.9
20200218081359 18 181 0.0 4.8 0.00 0.03 0.00 90 972.3
20200218080336 18 186 0.0 1.6 0.00 0.03 0.00 89 972.2
20200218075354 19 209 0.0 11.3 0.00 0.03 0.00 89 972.3
20200218074403 19 221 0.0 0.0 0.00 0.03 0.00 89 972.3
20200218073357 19 172 0.0 9.7 0.00 0.03 0.00 89 972.3
20200218072418 19 216 0.0 6.4 0.00 0.03 0.00 89 972.4
20200218071417 19 211 0.0 4.8 0.00 0.03 0.00 89 972.5
20200218070430 19 221 0.0 6.4 0.00 0.03 0.00 89 972.7
20200218065425 19 219 0.0 9.7 0.00 0.03 0.00 90 972.7
20200218064352 19 237 0.0 3.2 0.00 0.03 0.00 90 972.8
20200218063348 19 173 0.0 11.3 0.00 0.03 0.00 90 972.8
20200218062354 18 214 1.6 11.3 0.00 0.03 0.00 90 972.7
20200218061358 18 200 0.0 11.3 0.00 0.03 0.00 90 972.9
20200218060410 18 221 0.0 6.4 0.00 0.03 0.00 90 972.8
20200218055337 18 219 0.0 3.2 0.00 0.03 0.03 90 972.9
20200218054330 18 217 0.0 4.8 0.00 0.03 0.03 90 972.8
20200218053319 18 217 0.0 0.0 0.00 0.03 0.03 90 972.7
20200218052331 18 217 0.0 0.0 0.00 0.03 0.03 90 972.6
20200218051330 18 217 0.0 0.0 0.00 0.03 0.03 90 972.6
20200218050334 18 217 0.0 0.0 0.00 0.03 0.03 90 972.4
20200218045307 18 217 0.0 0.0 0.00 0.03 0.03 89 972.5
20200218044319 18 217 0.0 0.0 0.00 0.03 0.03 89 972.4
20200218043303 18 217 0.0 1.6 0.00 0.03 0.03 89 972.3
20200218042301 19 217 0.0 6.4 0.00 0.03 0.03 89 972.2
20200218041316 19 217 0.0 3.2 0.00 0.03 0.03 89 972.2
20200218040333 19 224 0.0 0.0 0.00 0.03 0.03 89 972.1
20200218035329 19 227 0.0 0.0 0.00 0.03 0.03 89 972.0
20200218034257 19 227 0.0 3.2 0.00 0.03 0.03 89 971.9
20200218033246 19 227 0.0 3.2 0.00 0.03 0.03 89 971.7
20200218032232 19 228 0.0 1.6 0.00 0.03 0.03 89 971.6
20200218031222 19 228 0.0 1.6 0.00 0.03 0.03 89 971.6
20200218030145 18 228 0.0 0.0 0.00 0.03 0.03 89 971.5
20200218025154 18 229 0.0 0.0 0.00 0.03 0.03 88 971.4
20200218024210 18 229 0.0 0.0 0.00 0.03 0.03 88 971.4
20200218023154 18 229 0.0 0.0 0.00 0.03 0.03 88 971.4
20200218022120 18 229 0.0 0.0 0.00 0.03 0.03 88 971.3
20200218021056 19 229 0.0 0.0 0.00 0.03 0.03 87 971.2
20200218020033 19 229 0.0 0.0 0.00 0.03 0.03 87 971.1
20200218015053 19 229 0.0 0.0 0.00 0.03 0.03 86 970.9
20200218014056 20 229 0.0 0.0 0.00 0.03 0.03 86 970.8
20200218013117 20 229 0.0 0.0 0.00 0.03 0.03 86 970.7
20200218012130 20 229 0.0 0.0 0.00 0.03 0.03 84 970.5
20200218011133 20 229 0.0 0.0 0.00 0.03 0.03 84 970.5
20200218010111 21 229 0.0 0.0 0.00 0.03 0.03 83 970.5
20200218005101 21 229 0.0 0.0 0.00 0.03 0.03 81 970.3
20200218004026 21 229 0.0 0.0 0.00 0.03 0.03 80 970.4
20200218003030 22 229 0.0 0.0 0.00 0.03 0.03 79 970.3
20200218002031 22 229 0.0 4.8 0.00 0.03 0.03 78 970.2
20200218001041 22 232 0.0 0.0 0.00 0.03 0.03 76 970.2
20200218000039 23 232 0.0 0.0 0.00 0.03 0.03 75 970.1
20200217235059 23 232 0.0 4.8 0.00 0.03 0.03 75 970.0
20200217234048 23 221 0.0 3.2 0.00 0.03 0.03 74 969.9
20200217233058 23 237 0.0 8.0 0.00 0.03 0.03 74 969.9
20200217232054 24 250 0.0 8.0 0.00 0.03 0.03 73 969.8
20200217231105 24 211 0.0 8.0 0.00 0.03 0.03 73 969.7
20200217230106 24 189 0.0 9.7 0.00 0.03 0.03 72 969.8
20200217225052 24 210 0.0 9.7 0.00 0.03 0.03 72 969.8
20200217224057 25 244 1.6 8.0 0.00 0.03 0.03 70 969.9
20200217223021 25 198 1.6 11.3 0.00 0.03 0.03 69 969.8
20200217222027 25 248 0.0 9.7 0.00 0.03 0.03 69 969.8
20200217221004 25 246 1.6 11.3 0.00 0.03 0.03 68 969.7
20200217215932 25 268 1.6 11.3 0.00 0.03 0.03 67 969.8